Location: Newark
(40.0667°N, 18.0500°E)
Time: 07:36:23
(UTC+00:00)

Envisat - Visible Passes

Search period start: 22 January 2020 00:00
Search period end: 01 February 2020 00:00
Orbit: 764 x 766 km, 98.1° (Epoch: 21 January)

Date Brightness Start Highest point End Pass type
(mag) Time Alt. Az. Time Alt. Az. Time Alt. Az.
22 Jan 5.0 04:46:42 10° NE 04:51:12 31° E 04:55:40 10° SSE visible
22 Jan 5.4 17:40:16 10° SSW 17:44:18 24° W 17:48:23 10° NW visible
23 Jan 6.2 04:11:34 10° ENE 04:14:06 14° E 04:16:38 10° ESE visible
23 Jan 3.9 17:02:23 10° S 17:07:20 53° W 17:12:19 10° NNW visible
24 Jan 3.9 05:11:47 10° NNE 05:16:48 55° E 05:21:45 10° S visible
24 Jan 3.0 16:25:32 10° SSE 16:30:34 68° ENE 16:35:37 10° N visible
24 Jan 6.2 18:07:40 10° WSW 18:10:03 13° W 18:12:26 10° WNW visible
25 Jan 5.5 04:35:42 10° NE 04:39:50 25° E 04:43:57 10° SSE visible
25 Jan 5.0 17:28:31 10° SSW 17:32:56 30° W 17:37:23 10° NW visible
26 Jan 6.5 04:01:51 10° E 04:02:40 10° E 04:03:29 10° E visible
26 Jan 3.4 16:50:59 10° S 16:56:01 69° WSW 17:01:07 10° NNW visible
27 Jan 4.4 05:00:37 10° NNE 05:05:28 43° E 05:10:17 10° S visible
27 Jan 5.9 17:55:22 10° SW 17:58:38 17° W 18:01:55 10° NW visible
28 Jan 5.9 04:24:50 10° NE 04:28:27 19° E 04:32:03 10° SE visible
28 Jan 4.6 17:16:53 10° SSW 17:21:35 38° W 17:26:19 10° NNW visible
29 Jan 3.3 05:25:54 10° NNE 05:31:00 78° ESE 05:36:05 10° S visible
29 Jan 3.1 16:39:39 10° SSE 16:44:44 87° WSW 16:49:50 10° NNW visible
30 Jan 4.9 04:49:30 10° NNE 04:54:07 34° E 04:58:42 10° SSE visible
30 Jan 5.6 17:43:22 10° SW 17:47:14 22° W 17:51:07 10° NW visible
31 Jan 6.2 04:14:08 10° NE 04:17:03 15° E 04:19:56 10° SE visible
31 Jan 4.1 17:05:21 10° S 17:10:14 49° W 17:15:11 10° NNW visible
